Volver al catálogo

TERRA

ActivoCienciaSSO
NORAD 25994·PAYLOAD·🇺🇸 United States

Lanzado Dec 18, 1999 desde Vandenberg Space Force Base

Loading…

Próximos Pases (próximas 24 horas)

TLE

ActualizadoSource: Space-Track

Época: Sep 14, 2026, 14:37 UTC

1 25994U 99068A   26257.60956172  .00000236  00000-0  56998-4 0  9991
2 25994  97.9370 303.5733 0001378 344.1644 176.5310 14.61160045422666

Sigue TERRA en tiempo real con AllMySat

Download on the App Store